Change the Weather History Date:

Tuesday, January 27, 2004

  Actual Average Record
Temperature  
Mean Temperature 28 °F -  
Max Temperature 35 °F 42 °F 68 °F (1999)
Min Temperature 21 °F 19 °F -15 °F (1987)
Degree Days  
Heating Degree Days 37    
Moisture  
Dew Point 23 °F    
Average Humidity 87    
Maximum Humidity 100    
Minimum Humidity 68    
Precipitation  
Precipitation 0.06 in - - ()
Sea Level Pressure  
Sea Level Pressure 29.73 in    
Wind  
Wind Speed 3 mph (West)    
Max Wind Speed 28 mph    
Max Gust Speed 44 mph    
Visibility 2 miles    
Events Fog , Snow    
Averages and records for this station are not official NWS values.
T = Trace of Precipitation, MM = Missing Value Source: NWS Daily Summary

Daily Weather History Graph

Daily Weather History Graph

Search for Another Location

Airport or City:

Trip Planner

Search our weather history database for the weather conditions in past years. The results will help you decide how hot, cold, wet, or windy it might be!

Date:

Astronomy

Jan. 27, 2004 Rise Set
Actual Time 7:31 AM EST 5:45 PM EST
Civil Twilight 7:03 AM EST 6:13 PM EST
Nautical Twilight 6:32 AM EST 6:44 PM EST
Astronomical Twilight 6:02 AM EST 7:15 PM EST
Moon 11:00 AM EST (1/27) No Moon Set
Length of Visible Light 11h 09m
Length of Day
10h 14m
Waxing Crescent, 35% of the Moon is Illuminated
Jan 27
Waxing Crescent
Jan 29
First Quarter
Feb 6
Full
Feb 13
Last Quarter
Feb 20
New

Hourly Weather History & Observations

Time (EST) Temp. Windchill Dew Point Humidity Pressure Visibility Wind Dir Wind Speed Gust Speed Precip Events Conditions
12:00 AM 24.8 °F - 21.2 °F 86% 29.85 in 0.2 mi Calm Calm - N/A Fog Light Freezing Fog
12:20 AM 24.8 °F - 21.2 °F 86% 29.86 in 0.2 mi Calm Calm - N/A Fog Light Freezing Fog
12:40 AM 24.8 °F 20.5 °F 21.2 °F 86% 29.86 in 0.2 mi SSE 3.5 mph - N/A Fog Light Freezing Fog
1:00 AM 24.8 °F - 21.2 °F 86% 29.83 in 0.2 mi Calm Calm - N/A Fog Light Freezing Fog
1:21 AM 24.8 °F - 23.0 °F 93% 29.83 in 0.2 mi Calm Calm - N/A Fog Light Freezing Fog
1:40 AM 24.8 °F - 23.0 °F 93% 29.82 in 0.2 mi Calm Calm - N/A Fog Light Freezing Fog
2:00 AM 24.8 °F - 23.0 °F 93% 29.84 in 0.5 mi Calm Calm - N/A Fog Light Freezing Fog
2:20 AM 24.8 °F - 23.0 °F 93% 29.83 in 0.2 mi Calm Calm - N/A Fog Light Freezing Fog
2:40 AM 24.8 °F - 23.0 °F 93% 29.82 in 0.2 mi Calm Calm - N/A Fog Light Freezing Fog
3:00 AM 24.8 °F - 23.0 °F 93% 29.81 in 0.2 mi Calm Calm - N/A Fog Light Freezing Fog
3:21 AM 24.8 °F - 21.2 °F 86% 29.80 in 0.2 mi Calm Calm - N/A Fog Light Freezing Fog
3:40 AM 23.0 °F - 21.2 °F 93% 29.80 in 0.2 mi Calm Calm - N/A Fog Light Freezing Fog
4:01 AM 24.8 °F - 21.2 °F 86% 29.80 in 0.2 mi Calm Calm - N/A Fog Light Freezing Fog
4:20 AM 23.0 °F - 21.2 °F 93% 29.79 in 0.2 mi Calm Calm - N/A Fog Light Freezing Fog
4:40 AM 23.0 °F - 21.2 °F 93% 29.79 in 0.2 mi Calm Calm - N/A Fog Light Freezing Fog
5:00 AM 23.0 °F - 21.2 °F 93% 29.79 in 0.2 mi Calm Calm - N/A Fog Light Freezing Fog
5:20 AM 23.0 °F - 21.2 °F 93% 29.79 in 0.2 mi Calm Calm - N/A Snow Light Snow
5:40 AM 23.0 °F - 21.2 °F 93% 29.78 in 0.5 mi Calm Calm - N/A Snow Light Snow
6:02 AM 23.0 °F - 21.2 °F 93% 29.78 in 0.5 mi Calm Calm - N/A Fog Light Freezing Fog
6:20 AM 21.2 °F - 19.4 °F 93% 29.78 in 0.5 mi Calm Calm - N/A Fog Light Freezing Fog
6:40 AM 23.0 °F - 19.4 °F 86% 29.78 in 1.0 mi Calm Calm - N/A Snow Light Snow
7:00 AM 21.2 °F 14.9 °F 19.4 °F 93% 29.77 in 0.8 mi SSE 4.6 mph - N/A Snow Light Snow
7:21 AM 21.2 °F 16.4 °F 19.4 °F 93% 29.76 in 1.0 mi SSE 3.5 mph - N/A Snow Light Snow
7:40 AM 21.2 °F 16.4 °F 19.4 °F 93% 29.76 in 0.8 mi SSE 3.5 mph - N/A Snow Light Snow
8:00 AM 21.2 °F - 19.4 °F 93% 29.76 in 1.2 mi Calm Calm - N/A Snow Light Snow
8:20 AM 23.0 °F - 19.4 °F 86% 29.76 in 0.8 mi Calm Calm - N/A Snow Light Snow
8:40 AM 23.0 °F - 21.2 °F 93% 29.76 in 0.5 mi Calm Calm - N/A Snow Light Snow
9:00 AM 23.0 °F - 21.2 °F 93% 29.75 in 0.2 mi Calm Calm - N/A Snow Light Snow
9:20 AM 24.8 °F - 21.2 °F 86% 29.75 in 0.2 mi Calm Calm - N/A Fog Light Freezing Fog
9:40 AM 24.8 °F - 21.2 °F 86% 29.73 in 0.2 mi Calm Calm - N/A Fog Light Freezing Fog
10:01 AM 24.8 °F - 23.0 °F 93% 29.73 in 0.5 mi Calm Calm - N/A   Overcast
10:20 AM 24.8 °F - 23.0 °F 93% - 3.0 mi Calm Calm - N/A   Overcast
10:40 AM 26.6 °F - 26.6 °F 100% 29.72 in 4.0 mi Calm Calm - N/A   Overcast
11:01 AM 26.6 °F - 26.6 °F 100% 29.71 in 3.0 mi Calm Calm - N/A   Overcast
11:20 AM 26.6 °F - 26.6 °F 100% 29.71 in 4.0 mi Calm Calm - N/A   Overcast
11:40 AM 30.2 °F - 28.4 °F 93% 29.70 in 4.0 mi Calm Calm - N/A   Overcast
12:00 PM 30.2 °F - 28.4 °F 93% 29.69 in 2.0 mi Calm Calm - N/A Snow Light Snow
12:20 PM 30.2 °F - 28.4 °F 93% 29.67 in 4.0 mi Calm Calm - N/A   Overcast
12:40 PM 32.0 °F 28.7 °F 30.2 °F 93% 29.66 in 7.0 mi SW 3.5 mph - N/A   Overcast
1:00 PM 32.0 °F 26.4 °F 30.2 °F 93% 29.65 in 10.0 mi WSW 5.8 mph - N/A   Overcast
1:21 PM 35.6 °F 29.9 °F 33.8 °F 93% 29.63 in 10.0 mi West 6.9 mph - N/A   Mostly Cloudy
1:40 PM 35.6 °F 27.5 °F 30.2 °F 81% 29.63 in 10.0 mi West 11.5 mph 26.5 mph N/A   Mostly Cloudy
2:00 PM 35.6 °F 27.5 °F 30.2 °F 81% 29.63 in 10.0 mi West 11.5 mph 17.3 mph N/A   Overcast
2:21 PM 35.6 °F 26.6 °F 30.2 °F 81% 29.63 in 2.5 mi West 13.8 mph 23.0 mph 0.03 in Snow Light Snow
2:40 PM 35.6 °F 25.5 °F 28.4 °F 75% 29.63 in 7.0 mi West 17.3 mph 28.8 mph 0.04 in   Overcast
3:00 PM 32.0 °F 21.2 °F 26.6 °F 80% 29.64 in 2.5 mi West 16.1 mph 24.2 mph N/A   Haze
3:20 PM 30.2 °F 18.5 °F 24.8 °F 80% 29.64 in 7.0 mi West 17.3 mph 38.0 mph 0.01 in   Overcast
3:40 PM 30.2 °F 19.8 °F 24.8 °F 80% 29.65 in 2.5 mi West 13.8 mph 21.9 mph 0.01 in Snow Light Snow
4:01 PM 30.2 °F 18.5 °F 21.2 °F 69% 29.64 in 10.0 mi WSW 17.3 mph 29.9 mph N/A   Overcast
4:20 PM 30.2 °F 15.7 °F 21.2 °F 69% 29.64 in 4.0 mi WNW 27.6 mph 42.6 mph N/A Snow Light Snow
4:40 PM 30.2 °F 16.5 °F 23.0 °F 75% 29.65 in 4.0 mi WNW 24.2 mph 33.4 mph N/A Snow Light Snow
5:00 PM 26.6 °F 11.4 °F 21.2 °F 80% 29.66 in 0.8 mi West 25.3 mph 38.0 mph N/A Snow Light Snow
5:20 PM 26.6 °F 12.4 °F 19.4 °F 74% 29.66 in 2.5 mi West 21.9 mph 36.8 mph N/A Snow Light Snow
5:42 PM 24.8 °F 11.1 °F 19.4 °F 80% 29.68 in 0.8 mi West 18.4 mph 39.1 mph N/A Snow Light Snow
6:00 PM 24.8 °F 11.1 °F 17.6 °F 74% 29.69 in 1.8 mi West 18.4 mph 34.5 mph N/A Snow Light Snow
6:20 PM 24.8 °F 12.9 °F 15.8 °F 69% 29.70 in 2.5 mi WNW 13.8 mph 35.7 mph N/A Snow Light Snow
6:40 PM 23.0 °F 7.6 °F 14.0 °F 68% 29.69 in 10.0 mi WNW 21.9 mph 36.8 mph N/A   Overcast
7:00 PM 21.2 °F 8.3 °F 14.0 °F 74% 29.71 in 5.0 mi WNW 13.8 mph 43.7 mph 0.01 in Snow Light Snow
7:23 PM 21.2 °F 6.4 °F 15.8 °F 80% 29.70 in 3.0 mi WNW 18.4 mph 29.9 mph 0.01 in Snow Light Snow
7:40 PM 21.2 °F 4.2 °F 12.2 °F 68% 29.70 in 5.0 mi West 25.3 mph 43.7 mph 0.01 in Snow Light Snow
8:00 PM 21.2 °F 3.0 °F 12.2 °F 68% 29.69 in 5.0 mi WNW 29.9 mph 42.6 mph N/A Snow Light Snow
8:20 PM 21.2 °F 6.8 °F 14.0 °F 74% 29.70 in 5.0 mi West 17.3 mph 29.9 mph N/A Snow Light Snow
8:40 PM 21.2 °F 2.7 °F 12.2 °F 68% 29.70 in 3.0 mi West 31.1 mph 42.6 mph N/A Snow Light Snow
9:00 PM 19.4 °F 4.1 °F 12.2 °F 74% 29.71 in 2.5 mi West 18.4 mph 42.6 mph N/A Snow Light Snow
9:20 PM 19.4 °F -0.0 °F 10.4 °F 68% 29.69 in 4.0 mi West 32.2 mph 52.9 mph N/A Snow Light Snow
9:40 PM 19.4 °F 1.4 °F 10.4 °F 68% 29.69 in 5.0 mi WNW 26.5 mph 46.0 mph N/A Snow Light Snow
10:00 PM 19.4 °F 3.6 °F 10.4 °F 68% 29.70 in 4.0 mi WNW 19.6 mph 44.9 mph N/A Snow Light Snow
10:20 PM 19.4 °F 4.1 °F 10.4 °F 68% 29.69 in 7.0 mi West 18.4 mph 38.0 mph N/A Snow Light Snow
10:41 PM 17.6 °F 0.1 °F 10.4 °F 73% 29.68 in 1.8 mi WNW 23.0 mph 52.9 mph 0.01 in Snow Light Snow
11:00 PM 17.6 °F -0.3 °F 8.6 °F 68% 29.69 in 10.0 mi WNW 24.2 mph 47.2 mph N/A   Scattered Clouds
11:20 PM 17.6 °F 0.1 °F 8.6 °F 68% 29.70 in 7.0 mi WNW 23.0 mph 39.1 mph N/A   Scattered Clouds
11:40 PM 17.6 °F 1.3 °F 8.6 °F 68% 29.70 in 7.0 mi WNW 19.6 mph 42.6 mph N/A Snow Light Snow